Weather History for Zanesville, OH

Change the Weather History Date:

Saturday, January 11, 2014

  Actual Average Record
Temperature  
Mean Temperature 45 °F 29 °F  
Max Temperature 54 °F 37 °F 60 °F (2013)
Min Temperature 36 °F 20 °F -6 °F (1982)
Degree Days  
Heating Degree Days 20 36  
Month to date heating degree days 447 396  
Since 1 July heating degree days 2576 2541  
Cooling Degree Days 0 0  
Month to date cooling degree days 0 0  
Year to date cooling degree days 0 0  
Moisture  
Dew Point 44 °F    
Average Humidity 82    
Maximum Humidity 93    
Minimum Humidity 70    
Precipitation  
Precipitation 0.74 in 0.09 in 2.27 in (2005)
Month to date precipitation 0.95 0.99  
Year to date precipitation 0.95 0.99  
Sea Level Pressure  
Sea Level Pressure 29.56 in    
Wind  
Wind Speed 12 mph (SW)    
Max Wind Speed 31 mph    
Max Gust Speed 41 mph    
Visibility 7 miles    
Events Rain    
T = Trace of Precipitation, MM = Missing Value Source: NWS Daily Summary

Daily Weather History Graph

Daily Weather History Graph

Search for Another Location

Airport:

Trip Planner

Search our weather history database for the weather conditions in past years. The results will help you decide how hot, cold, wet, or windy it might be!

Date:

Astronomy

Jan. 11, 2014 Rise Set
Actual Time 7:48 AM EST 5:22 PM EST
Civil Twilight 7:18 AM EST 5:52 PM EST
Nautical Twilight 6:45 AM EST 6:26 PM EST
Astronomical Twilight 6:12 AM EST 6:58 PM EST
Moon 2:05 PM EST (1/11) 3:52 AM EST (1/11)
Length of Visible Light 10h 33m
Length of Day
9h 34m
Waxing Gibbous, 83% of the Moon is Illuminated
Jan 11
Waxing Gibbous
Jan 15
Full
Jan 24
Last Quarter
Jan 30
New
Feb 6
First Quarter

Hourly Weather History & Observations

Time (EST) Temp. Windchill Dew Point Humidity Pressure Visibility Wind Dir Wind Speed Gust Speed Precip Events Conditions
12:53 AM 50.0 °F - 45.0 °F 83% 29.78 in 10.0 mi SSE 12.7 mph - N/A   Overcast
1:53 AM 51.1 °F - 45.0 °F 80% 29.73 in 10.0 mi South 15.0 mph 23.0 mph N/A   Overcast
2:37 AM 50.0 °F - 44.6 °F 82% 29.72 in 10.0 mi South 8.1 mph - N/A   Overcast
2:53 AM 50.0 °F - 46.0 °F 86% 29.72 in 10.0 mi South 4.6 mph - N/A   Overcast
3:51 AM 51.8 °F - 46.4 °F 82% 29.65 in 10.0 mi Calm Calm - 0.00 in Rain Light Rain
3:53 AM 51.1 °F - 46.0 °F 83% 29.65 in 10.0 mi Calm Calm - 0.00 in Rain Light Rain
4:13 AM 50.0 °F - 46.4 °F 87% 29.65 in 6.0 mi WNW 3.5 mph - N/A   Overcast
4:38 AM 50.0 °F - 46.4 °F 87% 29.65 in 1.8 mi NW 11.5 mph 19.6 mph 0.09 in Rain Heavy Rain
4:50 AM 50.0 °F - 48.2 °F 94% 29.64 in 2.0 mi West 6.9 mph - 0.11 in Rain Light Rain
4:51 AM 50.0 °F - 48.0 °F 93% 29.65 in 2.0 mi West 6.9 mph - 0.11 in Rain Light Rain
5:13 AM 51.8 °F - 48.2 °F 88% 29.64 in 1.2 mi SSW 5.8 mph - 0.07 in Rain Rain
5:19 AM 50.0 °F - 48.2 °F 94% 29.61 in 2.0 mi SSE 4.6 mph - 0.09 in Rain Rain
5:30 AM 50.0 °F - 48.2 °F 94% 29.62 in 3.0 mi South 6.9 mph - 0.12 in Rain Rain
5:40 AM 50.0 °F - 48.2 °F 94% 29.62 in 2.0 mi SSW 5.8 mph - 0.17 in Rain Rain
5:53 AM 51.1 °F - 48.9 °F 92% 29.62 in 3.0 mi SSW 6.9 mph - 0.21 in Rain Rain
6:53 AM 50.0 °F - 48.9 °F 96% 29.60 in 3.0 mi South 3.5 mph - 0.10 in Rain Light Rain
7:21 AM 50.0 °F - 48.2 °F 94% 29.59 in 2.0 mi South 5.8 mph - 0.07 in Rain Rain
7:40 AM 50.0 °F - 48.2 °F 94% 29.57 in 3.0 mi South 5.8 mph - 0.11 in Rain Light Rain
7:53 AM 50.0 °F - 48.0 °F 93% 29.57 in 3.0 mi SSE 9.2 mph - 0.14 in Rain Rain
8:53 AM 51.1 °F - 48.9 °F 92% 29.53 in 10.0 mi South 9.2 mph - 0.08 in   Overcast
9:53 AM 50.0 °F - 48.0 °F 93% 29.52 in 10.0 mi South 8.1 mph - N/A   Mostly Cloudy
10:37 AM 51.8 °F - 48.2 °F 88% 29.52 in 10.0 mi SSW 10.4 mph - N/A   Overcast
10:53 AM 51.1 °F - 48.9 °F 92% 29.52 in 10.0 mi SSW 11.5 mph - N/A   Overcast
11:19 AM 51.8 °F - 48.2 °F 88% 29.48 in 10.0 mi South 13.8 mph 19.6 mph N/A   Overcast
11:53 AM 52.0 °F - 48.9 °F 89% 29.46 in 5.0 mi SSW 13.8 mph - N/A   Overcast
12:14 PM 51.8 °F - 48.2 °F 88% 29.45 in 1.8 mi SSW 12.7 mph 23.0 mph 0.01 in Rain Light Rain
12:25 PM 51.8 °F - 48.2 °F 88% 29.45 in 3.0 mi SSW 11.5 mph 19.6 mph 0.02 in Rain Light Rain
12:37 PM 51.8 °F - 48.2 °F 88% 29.43 in 2.0 mi SW 10.4 mph - 0.03 in Rain Light Rain
12:39 PM 53.6 °F - 48.2 °F 82% 29.43 in 3.0 mi SW 12.7 mph - 0.03 in Rain Light Rain
12:50 PM 53.6 °F - 48.2 °F 82% 29.43 in 10.0 mi SW 10.4 mph 20.7 mph 0.03 in   Overcast
12:53 PM 53.1 °F - 48.9 °F 86% 29.43 in 10.0 mi SW 13.8 mph 20.7 mph 0.03 in   Mostly Cloudy
1:05 PM 53.6 °F - 48.2 °F 82% 29.42 in 10.0 mi SW 9.2 mph 19.6 mph N/A   Mostly Cloudy
1:15 PM 53.6 °F - 48.2 °F 82% 29.42 in 10.0 mi SW 11.5 mph 18.4 mph N/A   Mostly Cloudy
1:53 PM 54.0 °F - 46.9 °F 77% 29.42 in 10.0 mi WSW 12.7 mph 23.0 mph N/A   Scattered Clouds
2:40 PM 51.8 °F - 44.6 °F 76% 29.43 in 2.0 mi WSW 12.7 mph 27.6 mph 0.03 in Rain Rain
2:46 PM 50.0 °F - 42.8 °F 76% 29.43 in 1.5 mi West 20.7 mph 31.1 mph 0.04 in Rain Light Rain
2:53 PM 48.9 °F - 43.0 °F 80% 29.44 in 2.0 mi West 12.7 mph 31.1 mph 0.05 in Rain Rain
3:03 PM 50.0 °F - 42.8 °F 76% 29.44 in 10.0 mi West 18.4 mph 23.0 mph 0.00 in   Overcast
3:23 PM 48.2 °F - 42.8 °F 82% 29.45 in 2.5 mi West 18.4 mph 27.6 mph 0.02 in Rain Light Rain
3:32 PM 46.4 °F 37.9 °F 39.2 °F 76% 29.47 in 10.0 mi West 25.3 mph 34.5 mph 0.02 in   Overcast
3:53 PM 46.0 °F 38.8 °F 37.0 °F 71% 29.49 in 10.0 mi West 18.4 mph 35.7 mph 0.02 in   Overcast
4:10 PM 44.6 °F 37.8 °F 37.4 °F 76% 29.50 in 10.0 mi West 15.0 mph 27.6 mph N/A   Overcast
4:53 PM 44.1 °F 35.0 °F 35.1 °F 71% 29.54 in 9.0 mi West 24.2 mph 38.0 mph N/A   Overcast
5:00 PM 42.8 °F 34.8 °F 35.6 °F 76% 29.54 in 9.0 mi West 17.3 mph 41.4 mph N/A   Overcast
5:53 PM 41.0 °F 32.2 °F 33.1 °F 73% 29.57 in 10.0 mi West 18.4 mph 26.5 mph N/A   Mostly Cloudy
6:53 PM 39.9 °F 31.1 °F 32.0 °F 73% 29.60 in 10.0 mi West 17.3 mph 27.6 mph N/A   Overcast
7:00 PM 39.2 °F 31.2 °F 32.0 °F 75% 29.59 in 10.0 mi West 13.8 mph 27.6 mph N/A   Overcast
7:53 PM 39.0 °F 31.0 °F 32.0 °F 76% 29.63 in 10.0 mi West 13.8 mph 23.0 mph N/A   Overcast
8:53 PM 37.9 °F 29.2 °F 30.9 °F 76% 29.68 in 9.0 mi West 15.0 mph 23.0 mph N/A   Overcast
9:53 PM 37.0 °F 27.7 °F 30.0 °F 76% 29.72 in 9.0 mi WSW 16.1 mph 24.2 mph N/A   Overcast
10:53 PM 36.0 °F 26.7 °F 28.9 °F 76% 29.75 in 10.0 mi West 15.0 mph 19.6 mph N/A   Overcast
11:53 PM 36.0 °F 26.3 °F 27.0 °F 70% 29.77 in 10.0 mi West 16.1 mph 29.9 mph N/A   Overcast